Location: Camp Creek
(33.9000°N, 111.8167°W)
Time: 03:15:46
(UTC-07:00)

DELTA 2 R/B (1) - Visible Passes

Search period start: 21 April 2014 00:00
Search period end: 01 May 2014 00:00
Orbit: 791 x 804 km, 39.6° (Epoch: 19 April)

Date Brightness Start Highest point End Pass type
(mag) Time Alt. Az. Time Alt. Az. Time Alt. Az.
21 Apr 3.8 03:55:48 45° SSW 03:57:10 59° SSE 04:02:38 10° ENE visible
22 Apr 3.9 03:26:45 54° SE 03:26:45 54° SE 03:32:03 10° ENE visible
22 Apr 4.0 05:07:37 10° W 05:13:07 60° NNW 05:18:38 10° ENE visible
23 Apr 4.6 02:57:39 39° ESE 02:57:39 39° ESE 03:01:27 10° ENE visible
23 Apr 3.9 04:38:26 18° W 04:42:32 62° NNW 04:48:04 10° ENE visible
24 Apr 5.4 02:28:31 24° E 02:28:31 24° E 02:30:51 10° ENE visible
24 Apr 3.8 04:09:17 31° W 04:11:57 65° NNW 04:17:30 10° ENE visible
25 Apr 6.0 01:59:21 15° E 01:59:21 15° E 02:00:15 10° ENE visible
25 Apr 3.7 03:40:07 51° WNW 03:41:23 68° NNW 03:46:56 10° ENE visible
26 Apr 3.6 03:10:56 71° N 03:10:56 71° N 03:16:22 10° ENE visible
26 Apr 4.4 04:52:24 10° WNW 04:57:45 46° N 05:03:07 10° ENE visible
27 Apr 4.3 02:41:43 49° NE 02:41:43 49° NE 02:45:49 10° ENE visible
27 Apr 4.4 04:22:29 13° WNW 04:27:09 47° N 04:32:31 10° ENE visible
28 Apr 5.2 02:12:30 30° ENE 02:12:30 30° ENE 02:15:15 10° ENE visible
28 Apr 4.4 03:53:16 22° WNW 03:56:33 47° N 04:01:55 10° ENE visible
29 Apr 5.8 01:43:17 18° ENE 01:43:17 18° ENE 01:44:41 10° ENE visible
29 Apr 4.3 03:24:04 34° NW 03:25:57 47° N 03:31:19 10° ENE visible
29 Apr 4.2 05:07:29 10° WNW 05:12:59 59° NNE 05:18:29 10° E visible
30 Apr 6.3 01:14:06 10° ENE 01:14:06 10° ENE 01:14:07 10° ENE visible
30 Apr 4.2 02:54:52 47° NNW 02:55:22 48° N 03:00:44 10° ENE visible
30 Apr 4.2 04:36:56 10° WNW 04:42:24 57° NNE 04:47:52 10° E visible
